Fenton, MI

3:04 PM EST on December 22, 2014 (GMT -0500)
Forest Hills | Change Station
CLOSE
Current Station
Personal Weather Station
Location: Fenton, MI
Elevation: 919 ft
Nearby Weather Stations

Elev 919 ft 42.78 °N, 83.77 °W | Updated 11 minutes ago

Partly Cloudy
Partly Cloudy
39.0 °F
Feels Like 36 °F
N
3.7
Wind Variable Wind from ESE

Today
High -- | Low -- °F
--% Chance of Precip.
Yesterday
High -- | Low -- °F
Precip. -- in
8:02 AM 5:04 PM
New Moon, 1% visible
Pressure 29.97 in
Visibility 10.0 miles
Clouds Mostly Cloudy 10000 ft
Windchill 36 °F
Dew Point 30 °F
Humidity 71%
Rainfall 0.00 in
Snow Depth Not available.
UV 1 out of 12
Pollen .10 out of 12
Air Quality Not available.
Flu Activity Not available.
METAR KFNT 221953Z 11009KT 10SM BKN100 05/M02 A2995 RMK AO2 SLP149 T00501022

More Conditions Fewer Conditions

Pressure 29.97 in
Visibility 10.0 miles
Clouds Mostly Cloudy 10000 ft
Windchill 36 °F
Dew Point 30 °F
Humidity 71%
Rainfall 0.00 in
Snow Depth Not available.
UV 1 out of 12
Pollen .10 out of 12
Air Quality Not available.
Flu Activity Not available.
METAR KFNT 221953Z 11009KT 10SM BKN100 05/M02 A2995 RMK AO2 SLP149 T00501022

More Conditions Fewer Conditions

10-Day Weather Forecast

Almanac

Astronomy

Dec. 22, 2014 Rise Set
Actual Time
Civil Twilight
Nautical Twilight
Astronomical Twilight
Moon
Length of Visible Light
Length of Day
Tomorrow will be .
, % of the Moon is Illuminated

Today's Extremes

State Highs State Lows

Community

WunderPhotos

Upload Photos

1,779,708 photos uploaded!

WunderBlogs® & News

Nearby

Air Quality

  Air Quality AQ Index Pollutant
Not available.

Snow Depth

Station Depth Elevation

Earthquake Activity

City Distance Mag. Time & Date
Minimum magnitude displayed is 2.5.

Coastal Water Temperatures

Place Temperature

Nearby Weather Stations